Location: Ceske Budejovice
(48.9830°N, 14.4670°E)
Time: 12:36:45
(UTC+02:00)

AO-7 - Visible Passes

Search period start: 17 August 2019 00:00
Search period end: 27 August 2019 00:00
Orbit: 1440 x 1458 km, 101.7° (Epoch: 16 August)

Date Brightness Start Highest point End Pass type
(mag) Time Alt. Az. Time Alt. Az. Time Alt. Az.
17 Aug ? 04:07:20 10° NNE 04:15:12 43° E 04:22:58 10° SSE visible
18 Aug ? 03:08:44 10° NE 03:14:21 19° E 03:19:54 10° SE visible
18 Aug ? 05:00:01 10° NNE 05:08:26 79° ESE 05:16:46 10° SSW visible
19 Aug ? 04:00:25 10° NNE 04:08:07 39° E 04:15:45 10° SSE visible
20 Aug ? 03:02:04 10° NE 03:07:11 17° E 03:12:16 10° SE visible
20 Aug ? 04:53:01 10° NNE 05:01:25 74° ESE 05:09:44 10° SSW visible
21 Aug ? 03:53:30 10° NNE 04:01:02 36° E 04:08:29 10° SSE visible
22 Aug ? 02:55:29 10° NE 03:00:01 15° E 03:04:32 10° ESE visible
22 Aug ? 04:46:02 10° NNE 04:54:24 68° ESE 05:02:40 10° S visible
23 Aug ? 03:46:37 10° NNE 03:53:56 33° E 04:01:12 10° SSE visible
24 Aug ? 02:49:01 10° NE 02:52:51 14° E 02:56:38 10° ESE visible
24 Aug ? 04:39:03 10° NNE 04:47:21 63° ESE 04:55:35 10° S visible
25 Aug ? 03:39:44 10° NE 03:46:50 30° E 03:53:51 10° SSE visible
25 Aug ? 05:31:59 10° NNE 05:40:19 74° WNW 05:48:35 10° SSW visible
26 Aug ? 02:42:47 10° ENE 02:45:39 12° E 02:48:31 10° ESE visible
26 Aug ? 04:32:05 10° NNE 04:40:19 58° ESE 04:48:27 10° S visible
